Location: Newark
(35.6799°N, 139.7636°E)
Time: 23:46:44
(UTC+00:00)

Altair - Visible Passes

Search period start: 15 December 2019 00:00
Search period end: 25 December 2019 00:00
Orbit: 1502 x 1682 km, 47.2° (Epoch: 14 December)

Date Brightness Start Highest point End Pass type
(mag) Time Alt. Az. Time Alt. Az. Time Alt. Az.
15 Dec 7.8 08:53:14 10° SSW 09:02:35 50° SE 09:07:38 28° ENE visible
15 Dec 7.8 10:57:36 10° WSW 11:05:41 57° WNW 11:05:41 57° WNW visible
15 Dec 9.3 17:32:13 16° SSE 17:32:13 16° SSE 17:33:37 10° SE visible
15 Dec 9.1 19:30:16 13° SW 19:30:16 13° SW 19:32:08 10° SSW visible
16 Dec 8.0 08:28:14 10° SSW 08:37:28 46° SE 08:44:06 19° ENE visible
16 Dec 7.5 10:32:18 10° WSW 10:42:00 68° NNW 10:42:09 68° NNW visible
16 Dec 9.6 12:39:14 10° WNW 12:40:12 13° WNW 12:40:12 13° WNW visible
16 Dec 9.2 19:06:57 12° SSW 19:06:57 12° SSW 19:07:58 10° SSW visible
17 Dec 8.1 08:03:17 10° SSW 08:12:21 42° SE 08:20:33 12° ENE visible
17 Dec 7.5 10:07:00 10° WSW 10:16:47 72° NNW 10:18:35 60° NNE visible
17 Dec 9.3 12:13:52 10° WNW 12:16:37 20° WNW 12:16:37 20° WNW visible
18 Dec 7.5 09:41:43 10° WSW 09:51:34 76° NNW 09:54:59 46° NE visible
18 Dec 8.9 11:48:29 10° WNW 11:53:01 28° WNW 11:53:01 28° WNW visible
19 Dec 7.5 09:16:27 10° WSW 09:26:22 80° NNW 09:31:21 34° NE visible
19 Dec 8.5 11:23:06 10° W 11:29:23 36° NW 11:29:23 36° NW visible
20 Dec 7.5 08:51:14 10° SW 09:01:10 85° NNW 09:07:41 24° NE visible
20 Dec 8.2 10:57:43 10° W 11:05:43 43° NNW 11:05:43 43° NNW visible
21 Dec 7.6 08:26:00 10° SW 08:35:58 90° SE 08:44:00 17° NE visible
21 Dec 8.0 10:32:20 10° W 10:41:36 46° NNW 10:42:01 46° N visible
21 Dec 9.6 12:39:10 10° WNW 12:40:03 13° WNW 12:40:03 13° WNW visible
22 Dec 7.6 08:00:48 10° SW 08:10:47 85° SE 08:20:17 11° ENE visible
22 Dec 7.9 10:06:57 10° W 10:16:18 47° NNW 10:18:18 43° NNE visible
22 Dec 9.3 12:13:53 10° WNW 12:16:20 19° NW 12:16:20 19° NW visible
23 Dec 8.0 09:41:34 10° W 09:51:01 49° NNW 09:54:33 36° NNE visible
23 Dec 9.0 11:48:34 10° WNW 11:52:35 25° NW 11:52:35 25° NW visible
24 Dec 8.0 09:16:11 10° W 09:25:43 51° NNW 09:30:49 28° NE visible
24 Dec 8.6 11:23:15 10° WNW 11:28:50 32° NW 11:28:50 32° NW visible
